Whiteman AFB, MO

9:16 AM CDT on April 28, 2017 (GMT -0500)
Whiteman Air Force Base

Weather History for KSZL - April, 2012

Change the Weather History Date:

Tuesday, April 17, 2012

  Actual Average Record
Temperature  
Mean Temperature 57 °F -  
Max Temperature 71 °F 64 °F 86 °F (2002)
Min Temperature 43 °F 45 °F 30 °F (1997)
Degree Days  
Heating Degree Days 8    
Growing Degree Days 7 (Base 50)    
Moisture  
Dew Point 47 °F    
Average Humidity 69    
Maximum Humidity 97    
Minimum Humidity 44    
Precipitation  
Precipitation 0.00 in - - ()
Sea Level Pressure  
Sea Level Pressure 30.26 in    
Wind  
Wind Speed 4 mph (SSE)    
Max Wind Speed 10 mph    
Max Gust Speed -    
Visibility 10 miles    
Events      
Averages and records for this station are not official NWS values.
T = Trace of Precipitation, MM = Missing Value Source: NWS Daily Summary

Daily Weather History Graph

Daily Weather History Graph

Search for Another Location

Airport or City:

Trip Planner

Search our weather history database for the weather conditions in past years. The results will help you decide how hot, cold, wet, or windy it might be!

Date:

Astronomy

Apr. 17, 2012 Rise Set
Actual Time 6:34 AM CDT 7:53 PM CDT
Civil Twilight 6:06 AM CDT 8:21 PM CDT
Nautical Twilight 5:33 AM CDT 8:54 PM CDT
Astronomical Twilight 4:58 AM CDT 9:29 PM CDT
Moon 4:30 AM CDT (4/17) 4:49 PM CDT (4/17)
Length of Visible Light 14h 14m
Length of Day
13h 19m
Waning Crescent, 12% of the Moon is Illuminated
Apr 17
Waning Crescent
Apr 21
New
Apr 29
First Quarter
May 5
Full
May 12
Last Quarter

Hourly Weather History & Observations

Time (CDT) Temp. Windchill Dew Point Humidity Pressure Visibility Wind Dir Wind Speed Gust Speed Precip Events Conditions
12:55 AM 47.7 °F - 45.0 °F 90% 30.26 in 10.0 mi SSW 3.5 mph - N/A   Clear
1:55 AM 47.3 °F - 45.7 °F 94% 30.27 in 10.0 mi Calm Calm - N/A   Clear
2:55 AM 46.4 °F - 45.5 °F 97% 30.27 in 10.0 mi Calm Calm - N/A   Clear
3:55 AM 46.2 °F - 43.2 °F 89% 30.28 in 10.0 mi Calm Calm - N/A   Clear
4:55 AM 45.5 °F - 43.3 °F 92% 30.27 in 10.0 mi Calm Calm - N/A   Clear
5:55 AM 43.3 °F 39.9 °F 42.3 °F 96% 30.29 in 10.0 mi NNE 5.8 mph - N/A   Clear
6:55 AM 45.1 °F 42.0 °F 43.2 °F 93% 30.30 in 10.0 mi East 5.8 mph - N/A   Clear
7:55 AM 48.4 °F - 45.3 °F 89% 30.32 in 10.0 mi East 6.9 mph - N/A   Clear
8:55 AM 52.3 °F - 47.3 °F 83% 30.33 in 10.0 mi ESE 6.9 mph - N/A   Clear
9:55 AM 57.6 °F - 49.1 °F 73% 30.33 in 10.0 mi Variable 5.8 mph - N/A   Clear
10:55 AM 62.2 °F - 48.2 °F 60% 30.33 in 10.0 mi ESE 4.6 mph - N/A   Clear
11:55 AM 66.0 °F - 49.3 °F 55% 30.31 in 10.0 mi Variable 4.6 mph - N/A   Clear
12:55 PM 67.5 °F - 48.2 °F 50% 30.30 in 10.0 mi Variable 5.8 mph - N/A   Partly Cloudy
1:55 PM 69.1 °F - 48.9 °F 49% 30.28 in 10.0 mi South 8.1 mph - N/A   Unknown
2:55 PM 69.4 °F - 48.7 °F 48% 30.32 in 10.0 mi SSE 8.1 mph - N/A   Scattered Clouds
3:55 PM 71.6 °F - 50.0 °F 46% 30.30 in 10.0 mi South 8.1 mph - N/A   Partly Cloudy
4:55 PM 70.7 °F - 47.8 °F 44% 30.22 in 10.0 mi SSW 6.9 mph - N/A   Scattered Clouds
5:55 PM 67.6 °F - 48.4 °F 50% 30.21 in 10.0 mi South 9.2 mph - N/A   Scattered Clouds
6:55 PM 67.8 °F - 48.0 °F 49% 30.20 in 10.0 mi South 10.4 mph - N/A   Partly Cloudy
7:55 PM 63.3 °F - 47.3 °F 56% 30.19 in 10.0 mi SE 5.8 mph - N/A   Clear
8:55 PM 60.6 °F - 47.8 °F 63% 30.19 in 10.0 mi SE 4.6 mph - N/A   Clear
9:55 PM 58.8 °F - 46.2 °F 63% 30.20 in 10.0 mi SE 5.8 mph - N/A   Clear
10:55 PM 57.4 °F - 45.7 °F 65% 30.20 in 10.0 mi SE 5.8 mph - N/A   Clear
11:55 PM 55.8 °F - 45.7 °F 69% 30.18 in 10.0 mi SSE 4.6 mph - N/A   Clear